Location: Czekan�w
(50.3488°N, 18.7344°E)
Time: 18:36:00
(UTC+00:00)

Meteor 2-10 Rocket - Pass Details

Date: 17 February 2020
Orbit: 734 x 885 km, 81.2° (Epoch: 27 March)

Event Time Altitude Azimuth Distance (km) Brightness Sun altitude
Exits shadow 04:27:16 19° 250° (WSW) 1,812 4.9 -14.4°
Maximum altitude 04:29:58 29° 294° (WNW) 1,419 4.4 -14.0°
Drops below altitude 10° 04:34:27 10° 354° (N) 2,312 5.9 -13.3°
Sets 04:37:05 0° 6° (N) 3,222 6.8 -12.8°
